Back to catalog

CZ-6A DEB

AlivePO
NORAD 55186·DEBRIS·🇨🇳 China

Launched Nov 11, 2022 from Taiyuan Satellite Launch Center

Loading…

Next Passes (next 24 hours)

TLE

FreshSource: Space-Track

Epoch: Sep 14, 2026, 02:52 UTC

1 55186U 22151VB  26257.11992260  .00004681  00000-0  91419-3 0  9994
2 55186  98.6390 323.8916 0067348  16.3864 343.9492 14.61999358194586

Track CZ-6A DEB in real time with AllMySat

Download on the App Store